Location: ????????
(55.4717°N, 39.1821°E)
Time: 12:49:46
(UTC+00:00)

BlueWalker 3 - Pass Details

Date: 14 April 2024
Orbit: 481 x 494 km, 53.2° (Epoch: 23 May)

Event Time Altitude Azimuth Distance (km) Brightness Sun altitude
Exits shadow 00:26:09 27° 246° (WSW) 989 2.9 -14.7°
Maximum altitude 00:27:29 36° 204° (SSW) 810 2.5 -14.6°
Drops below altitude 10° 00:31:01 10° 138° (SE) 1,698 4.6 -14.2°
Sets 00:33:18 0° 129° (SE) 2,576 5.7 -14.0°
